EHI
0 0 0 0 0 0 0 0 0 0 0 0 0 0 0 0 0 0 0 0 0 0 0 0 0 0 0 0 0 0 0 0 0 0 0 0 0 0 0 0 0 0 0 0
0 0 0 0 0 0 0 0 0 0 0 0 0 0 0 0 0 0 0 0 0 0 0 0 0 0 0 0 0 0 0 0 0 0 0 0 0 0 0 0 0 0 0 0
0 0 0 0 0 0 0 0 0 0 0 0 0 0 0 0 0 0 0 0 0 0 0 0 0 0 0 0 0 0 0 0 0 0 0 0 0 0 0 0 0 0 0 0
0 0 0 0 0 0 0 0 0 0 0 0 0 0 0 0 0 0 0 0 0 0 0 0 0 0 0 0 0 0 0 0 0 0 0 0 0 0 0 0 0 0 0 0
0 0 0 0 0 0 0 0 0 0 0 0 0 0 0 0 0 0 0 0 0 0 0 0 0 0 0 0 0 0 0 0 0 0 0 0 0 0 0 0 0 0 0 0
0 0 0 0 0 0 0 0 0 0 0 0 0 0 0 0 0 0 0 0 0 0 0 0 0 0 0 0 0 0 0 0 0 0 0 0 0 0 0 0 0 0 0 0
0 0 0 0 0 0 0 0 0 0 0 0 0 0 0 0 0 0 0 0 0 0 0 0 0 0 0 0 0 0 0 0 0 0 0 0 0 0 0 0 0 0 0 0
0 0 0 0 0 0 0 0 0 0 0 0 0 0 0 0 0 0 0 0 0 0 0 0 0 0 0 0 0 0 0 0 0 0 0 0 0 0 0 0 0 0 0 0
0 0 0 0 0 0 0 0 0 0 0 0 0 0 0 0 0 0 0 0 0 0 0 0 0 0 0 0 0 0 0 0 0 0 0 0 0 0 0 0 0 0 0 0
0 0 0 0 0 0 0 0 0 0 0 0 0 0 0 0 0 0 0 0 0 0 0 0 0 0 0 0 0 0 0 0 0 0 0 0 0 0 0 0 0 0 0 0
0 0 0 0 0 0 0 0 0 0 0 0 0 0 0 0 0 0 0 0 0 0 0 0 0 0 0 0 0 0 0 0 0 0 0 0 0 0 0 0 0 0 0 0
0 0 0 0 0 0 0 0 0 0 0 0 0 0 0 0 0 0 0 0 0 0 0 0 0 0 0 0 0 0 0 0 0 0 0 0 0 0 0 0 0 0 0 0
0 0 0 0 0 0 0 0 0 0 0 0 0 0 0 0 0 0 0 0 0 0 0 0 0 0 0 0 0 0 0 0 0 0 0 0 0 0 0 0 0 0 0 0
0 0 0 0 0 0 0 0 0 0 0 0 0 0 0 0 0 0 0 0 0 0 0 0 0 0 0 0 0 0 0 0 0 0 0 0 0 0 0 0 0 0 0 0
0 0 0 0 0 0 0 0 0 0 0 0 0 0 0 0 0 0 0 0 0 0 0 0 0 0 0 0 0 0 0 0 0 0 0 0 0 0 0 0 0 0 0 0
0 0 0 0 0 0 0 0 0 0 0 0 0 0 0 0 0 0 0 0 0 0 0 0 0 0 0 0 0 0 0 0 0 0 0 0 0 0 0 0 0 0 0 0
0 0 0 0 0 0 0 0 0 0 0 0 0 0 0 0 0 0 0 0 0 0 0 0 0 0 0 0 0 0 0 0 0 0 0 0 0 0 0 0 0 0 0 0
0 0 0 0 0 0 0 0 0 0 0 0 0 0 0 0 0 0 0 0 0 0 0 0 0 0 0 0 0 0 0 0 0 0 0 0 0 0 0 0 0 0 0 0
0 0 0 0 0 0 0 0 0 0 0 0 0 0 0 0 0 0 0 0 0 0 0 0 0 0 0 0 0 0 0 0 0 0 0 0 0 0 0 0 0 0 0 0
0 0 0 0 0 0 0 0 0 0 0 0 0 0 0 0 0 0 0 0 0 0 0 0 0 0 0 0 0 0 0 0 0 0 0 0 0 0 0 0 0 0 0 0
0 0 0 0 0 0 0 0 0 0 0 0 0 0 0 0 0 0 0 0 0 0 0 0 0 0 0 0 0 0 0 0 0 0 0 0 0 0 0 0 0 0 0 0
0 0 0 0 0 0 0 0 0 0 0 0 0 0 0 0 0 0 0 0 0 0 0 0 0 0 0 0 0 0 0 0 0 0 0 0 0 0 0 0 0 0 0 0
0 0 0 0 0 0 0 0 0 0 0 0 0 0 0 0 0 0 0 0 0 0 0 0 0 0 0 0 0 0 0 0 0 0 0 0 0 0 0 0 0 0 0 0
0 0 0 0 0 0 0 0 0 0 0 0 0 0 0 0 0 0 0 0 0 0 0 0 0 0 0 0 0 0 0 0 0 0 0 0 0 0 0 0 0 0 0 0
0 0 0 0 0 0 0 0 0 0 0 0 0 0 0 0 0 0 0 0 0 0 0 0 0 0 0 0 0 0 0 0 0 0 0 0 0 0 0 0 0 0 0 0
0 0 0 0 0 0 0 0 0 0 0 0 0 0 0 0 0 0 0 0 0 0 0 0 0 0 0 0 0 0 0 0 0 0 0 0 0 0 0 0 0 0 0 0
Wind_Speed
5 4 6 9 11 8 4 5 4 2 5 3 7 10 10 9 8 9 9 9 9 10 10 10 12 12 10 10 11 12 12 12 10 8 8 7 7 5 4 5 6 8 9 11
4 8 9 5 2 3 2 4 6 3 4 2 6 12 11 11 12 11 11 10 10 10 9 10 11 12 13 13 12 11 12 13 12 10 8 6 5 5 5 4 6 8 9 11
9 3 6 4 3 2 5 6 7 6 2 4 4 10 11 12 15 12 10 9 9 10 10 9 10 11 12 13 13 12 12 12 12 10 6 4 4 3 5 7 7 8 10 11
9 4 3 4 6 6 6 5 6 4 3 4 4 7 6 6 6 9 8 8 10 11 10 9 8 10 11 12 10 10 10 10 10 10 9 10 9 10 10 7 6 7 9 10
6 6 6 6 6 7 2 4 2 1 3 5 4 6 9 6 7 8 9 10 10 9 8 7 7 8 9 10 10 9 9 9 10 10 11 10 9 8 5 5 7 8 8 9
1 2 2 1 1 3 7 4 3 1 2 7 8 9 9 7 10 8 9 7 4 2 0 1 2 3 4 6 7 8 9 9 9 10 10 11 10 8 6 7 8 8 6 7
6 4 2 2 5 4 5 5 2 3 4 9 7 9 9 6 3 3 2 1 1 1 1 2 2 2 3 5 6 6 7 8 8 9 9 10 9 9 9 7 8 8 7 7
11 9 13 9 8 9 8 8 9 8 6 5 3 10 8 1 1 1 2 5 5 3 2 3 3 4 4 6 7 7 7 7 8 9 9 8 8 7 7 8 7 8 8 8
7 7 8 10 5 10 8 9 6 3 3 5 8 8 4 2 2 5 7 6 4 3 3 4 4 4 4 5 6 7 7 7 7 8 8 8 8 8 8 7 7 6 7 7
3 2 4 4 2 3 2 5 4 5 6 7 9 9 7 6 11 9 5 4 3 1 0 1 2 3 3 4 4 5 6 7 7 7 7 7 8 8 7 7 8 7 8 8
5 3 3 3 9 9 6 4 6 6 6 7 7 9 3 3 4 3 1 2 3 2 1 0 1 2 3 3 3 4 5 6 7 7 7 8 8 7 8 8 8 7 7 8
5 3 5 7 6 5 8 10 9 6 7 4 5 11 3 6 5 4 2 0 1 1 1 0 2 2 3 3 4 5 6 7 7 7 7 8 8 8 9 9 8 8 8 8
5 5 3 1 3 3 4 7 10 8 4 6 8 13 1 4 3 2 1 3 3 2 2 2 2 3 4 5 6 6 7 8 7 7 8 8 9 10 11 10 8 8 8 8
3 4 7 9 4 4 4 5 6 7 8 10 15 19 10 2 2 3 4 5 4 4 4 3 4 4 5 6 6 7 8 8 7 7 8 10 11 10 10 8 8 8 8 9
4 4 5 7 6 3 4 6 8 11 12 11 13 18 21 7 6 6 6 7 7 6 6 5 5 5 5 5 6 6 7 7 7 8 9 12 10 8 8 8 8 7 8 8
5 4 3 5 7 7 8 10 12 13 12 15 16 24 16 8 8 9 8 8 8 7 7 7 7 6 5 5 5 5 6 6 6 8 10 9 7 7 8 8 7 7 8 7
5 5 4 4 4 4 12 14 14 13 13 12 18 23 13 11 10 8 7 8 8 8 8 8 8 7 5 5 4 5 5 4 5 7 8 7 7 7 7 7 7 8 8 7
6 5 2 2 2 11 10 6 12 16 17 16 15 15 11 9 9 8 5 5 7 8 9 9 8 8 6 5 5 4 4 3 4 6 6 6 6 7 6 7 8 8 6 7
8 7 5 4 6 8 9 7 6 8 10 5 6 7 7 8 7 5 4 6 6 7 7 7 7 7 7 6 6 5 5 4 4 5 6 6 6 6 6 7 7 6 5 6
11 9 6 6 7 10 8 3 2 3 7 3 3 5 7 7 5 5 9 10 10 9 7 6 7 7 7 6 6 5 6 5 5 5 5 4 5 5 6 6 5 4 5 5
8 8 13 12 9 9 8 3 1 6 5 2 3 4 6 4 5 9 10 9 8 8 7 6 6 6 6 6 6 6 5 5 5 4 3 2 3 4 4 4 3 4 4 4
9 8 10 9 10 11 3 2 3 2 1 1 1 2 4 6 9 9 9 8 7 7 7 6 6 6 6 6 5 6 5 5 4 3 2 1 1 1 2 3 3 4 5 4
7 7 6 8 8 3 3 3 2 3 1 1 2 3 4 6 8 9 9 8 7 6 6 5 5 6 5 5 4 5 6 5 4 2 1 1 2 2 3 4 4 3 4 3
4 2 3 4 5 2 1 1 2 2 2 3 4 5 5 7 9 9 9 8 7 6 5 4 4 5 5 5 5 5 6 4 2 1 1 2 3 3 3 3 3 3 3 3
4 3 3 5 5 4 3 2 2 2 4 5 6 6 7 8 9 9 9 8 7 6 4 2 3 4 5 5 5 6 6 4 1 1 1 2 2 3 4 3 3 3 2 3
6 5 5 6 4 4 6 5 5 5 7 7 8 8 8 8 10 9 8 7 5 5 3 3 2 2 3 4 5 6 7 4 1 1 1 1 2 3 3 4 4 8 6 7
Wind_Direction
185 207 204 206 215 246 331 323 288 85 113 186 245 260 261 258 237 231 232 235 238 232 222 205 195 190 187 188 189 187 188 187 186 190 193 196 201 193 190 193 188 183 181 177
154 232 230 231 220 227 259 288 297 308 118 186 270 272 265 254 249 239 237 236 236 241 232 213 195 183 186 191 193 192 193 189 190 196 193 190 186 192 194 190 197 191 185 181
201 193 211 181 148 196 232 235 252 267 171 207 271 285 247 240 233 235 235 240 246 244 242 226 199 189 186 191 194 197 197 194 192 188 175 172 176 176 189 199 202 197 189 185
228 219 139 170 197 194 241 237 231 278 321 279 204 285 281 273 235 218 226 235 243 245 242 234 209 196 191 193 189 192 195 195 190 184 186 184 192 200 203 195 193 191 191 190
217 172 162 193 206 201 167 49 68 215 248 274 236 257 268 251 251 231 225 231 237 240 235 226 209 194 190 182 180 186 190 196 192 189 191 195 204 207 191 181 186 192 195 197
203 53 152 175 97 163 123 103 87 169 231 254 210 229 264 216 222 221 221 224 234 251 304 66 84 112 141 156 169 177 187 197 195 194 194 199 205 203 203 196 190 191 193 201
198 188 153 105 110 110 150 149 174 227 223 246 196 220 249 207 187 180 196 249 319 31 57 84 107 131 157 162 170 178 188 199 196 195 199 202 205 204 211 206 192 186 189 202
198 203 178 183 173 166 196 187 175 194 223 265 226 235 252 142 99 31 267 260 265 255 230 217 210 197 189 184 179 183 194 202 196 198 203 203 204 209 216 211 196 194 198 202
214 219 162 178 176 159 173 220 219 227 273 294 260 259 282 144 252 261 260 264 272 261 233 218 213 207 191 186 188 191 196 202 202 200 201 207 209 212 216 214 202 194 193 191
263 221 109 110 68 297 223 178 157 186 201 240 263 247 239 223 227 237 259 291 313 334 233 187 202 198 187 179 183 190 198 203 204 201 204 209 213 215 215 213 212 202 193 186
214 198 140 149 194 189 179 204 193 187 182 189 259 261 203 146 150 150 124 36 8 355 344 212 185 168 166 168 178 195 206 207 206 206 208 210 214 214 214 215 214 205 195 187
181 188 204 209 209 218 202 201 192 192 225 213 236 262 119 91 94 104 99 341 309 311 298 231 156 164 186 207 211 210 211 215 214 207 208 214 213 213 216 219 213 203 200 193
149 164 167 226 203 205 226 218 213 223 217 215 228 260 121 114 111 130 242 280 280 263 253 236 208 213 220 220 219 217 216 217 214 206 211 218 219 217 219 218 210 202 198 192
111 183 200 201 164 159 199 225 222 213 223 235 237 257 262 276 309 306 298 286 280 271 261 252 248 238 231 227 223 222 223 216 209 206 213 223 225 222 221 215 208 201 194 191
125 204 242 270 293 296 242 233 233 234 236 239 252 260 265 277 291 295 299 300 299 294 290 283 273 263 254 247 241 235 232 219 207 208 218 228 227 221 216 212 207 198 194 193
165 188 211 254 251 259 261 245 237 238 242 250 263 266 270 291 289 292 296 299 298 299 299 297 294 288 279 271 261 253 246 232 211 215 226 230 226 219 215 209 199 194 193 189
165 170 190 235 206 230 246 231 228 234 231 233 248 261 280 280 279 283 291 296 298 306 308 307 305 299 293 286 279 267 257 246 223 228 233 231 225 221 215 203 194 196 194 188
168 159 187 244 183 228 239 214 212 228 238 236 243 260 274 280 285 279 288 309 317 321 315 309 308 307 309 310 306 305 302 278 249 243 241 234 226 225 213 200 201 198 188 190
198 180 190 202 233 261 267 243 226 234 247 250 258 287 311 319 310 289 8 355 331 321 318 317 324 324 327 332 338 328 308 292 271 257 250 239 224 220 210 207 205 195 186 190
208 200 199 206 214 231 241 223 238 234 245 3 357 335 337 351 324 304 351 342 334 334 334 331 332 332 329 335 339 319 301 294 281 272 261 242 220 213 211 207 196 183 181 187
181 201 215 221 230 248 254 251 174 212 228 25 16 359 351 332 287 300 316 319 319 318 320 328 329 323 322 330 329 310 304 297 296 293 282 253 211 202 199 187 170 162 162 163
175 183 201 207 223 239 239 122 175 186 123 117 351 328 310 295 295 302 308 309 313 314 319 327 323 317 326 337 330 315 311 316 320 318 316 300 154 149 147 146 143 145 148 153
204 197 190 195 211 192 128 146 157 158 177 248 287 288 286 290 292 299 303 307 309 310 311 315 311 310 323 341 339 317 318 326 329 345 17 54 85 99 119 133 137 135 140 146
230 208 216 249 249 240 304 164 167 166 214 250 255 266 270 276 283 288 290 292 295 297 299 305 311 309 319 343 343 326 320 321 325 13 65 91 104 104 103 109 119 128 139 143
209 189 215 247 274 315 302 263 247 273 281 277 268 256 255 265 274 276 281 283 284 287 288 289 290 299 315 335 336 336 330 325 339 69 96 105 107 111 102 93 98 111 107 134
215 208 215 238 239 248 265 272 282 285 282 277 274 272 259 250 264 273 274 276 279 284 293 295 298 305 322 337 339 340 334 331 338 95 101 102 108 107 107 104 89 83 91 95